Regional Weather Roundup
Issued by NWS

Home | Current Version | Previous Version | Graphics & Text | Print | Product List | Glossary On
Versions: 1 2 3 4 5 6 7 8 9 10 11 12 13 14 15 16 17 18 19 20 21 22 23 24 25 26 27 28 29 30 31 32 33 34 35 36 37 38 39 40 41 42 43 44 45 46 47 48 49 50
821
ASUS43 KMPX 301101
RWRMN
WEATHER ROUNDUP FOR MINNESOTA
NATIONAL WEATHER SERVICE TWIN CITIES/CHANHASSEN MN
600 AM CDT MON MAY 30 2016


NOTE: "FAIR" INDICATES FEW OR NO CLOUDS BELOW 12,000 FEET WITH NO
SIGNIFICANT WEATHER AND/OR OBSTRUCTIONS TO VISIBILITY. N/A MEANS
CURRENT SKY AND/OR WEATHER CONDITIONS ARE NOT AVAILABLE.

MNZ060>063-068>070-301200-
   Twin Cities Metro

CITY           SKY/WX    TMP DP  RH WIND       PRES   REMARKS
TWIN CITIES    CLOUDY    61  57  87 CALM      29.99F
ST PAUL        FOG       55  55 100 CALM      30.00S VSB 1/4
CRYSTAL        FOG       54  52  93 CALM      29.98S VSB 1/4
BLAINE         FOG       55  55 100 CALM      29.99S VSB<1/4
EDEN PRAIRIE   CLOUDY    58  56  93 CALM      29.99S
SOUTH ST PAUL  CLOUDY    56  55  95 CALM      30.00R
LAKE ELMO      FOG       52  52 100 CALM      30.01S VSB<1/4
$$
MNZ001>005-007-008-013>017-022>024-027-028-301200-
   Northwest Minnesota

CITY           SKY/WX    TMP DP  RH WIND       PRES   REMARKS
BEMIDJI        FOG       42  42  99 CALM      29.97R VSB<1/4
HALLOCK        CLEAR     52  48  87 SE3       29.91R
ROSEAU         CLEAR     48  45  87 S3        29.93R
WARROAD        PTCLDY    48  45  87 NE3       29.94R FOG
THIEF RVR FALL CLEAR     54  45  71 S6        29.95R
CROOKSTON      PTCLDY    50  48  93 S6        29.95R
FOSSTON        CLEAR     50  46  87 S6        29.97R
DETROIT LAKES  CLOUDY    59  52  77 CALM      29.99R
MOORHEAD       CLEAR     55  48  76 SE7       29.95S
PARK RAPIDS    CLOUDY    52  47  83 CALM      29.98R
MAHNOMEN       FAIR      52  47  82 S9        29.96R
$$
MNZ006-009>011-018-025>026-301200-
   North Central Minnesota

CITY           SKY/WX    TMP DP  RH WIND       PRES   REMARKS
BAUDETTE       CLEAR     45  44  97 CALM      29.93R
FLAG ISLAND    CLEAR     54  52  94 CALM      29.91S
INTL FALLS     CLEAR     45  45 100 CALM      29.92R
WASKISH        CLEAR     48  46  93 CALM      29.94R FOG
BIG FORK         N/A     45  43  93 CALM      29.96R FOG
LONGVILLE      FOG       45  43  93 CALM      29.98R VSB 3/4
GRAND RAPIDS   FOG       47  47 100 CALM      29.99R VSB 1/4
CRANE LAKE     CLEAR     39  39 100 CALM      29.95R
ORR            CLEAR     48  46  93 CALM      29.93R
COOK           CLEAR     48  48 100 SW3       29.95R
WALKER         FAIR      47  46  97 CALM      29.98R
$$
MNZ012-019>021-037-301200-
   Northeast Minnesota

CITY           SKY/WX    TMP DP  RH WIND       PRES   REMARKS
DULUTH         CLEAR     53  49  86 W7        29.97R
ELY            CLEAR     48  48 100 W3        29.94R
HIBBING        CLEAR     39  39 100 CALM      29.96R FOG
EVELETH          N/A     43  43 100 CALM      29.97R FOG
DULUTH HARBOR  CLEAR     54  52  94 S7        29.97R
TWO HARBORS    CLEAR     57  52  82 W5        29.95R
SILVER BAY     CLEAR     54  50  87 CALM      29.93R
GRAND MARAIS     N/A     50  48  93 CALM      29.89R
G MARAIS ARPRT CLEAR     52  48  87 W6        29.91R
$$
MNZ029>031-032-039>041-046>048-054>057-064-301200-
   West Central Minnesota

CITY           SKY/WX    TMP DP  RH WIND       PRES   REMARKS
FERGUS FALLS   CLEAR     55  50  82 SE6       29.95R
WHEATON        CLEAR     59  48  67 S6        29.98S
MORRIS         PTCLDY    52  48  87 CALM      29.97S
ALEXANDRIA     CLOUDY    52  49  89 CALM      30.00R
ELBOW LAKE     FAIR      56  48  75 E6        29.98S
WADENA         CLOUDY    54  48  82 CALM      29.99S
GLENWOOD       CLOUDY    55  50  82 CALM      29.99F
APPLETON       CLOUDY    54  48  82 CALM      29.98R
ORTONVILLE     CLOUDY    55  52  88 CALM      29.97S
MADISON        CLOUDY    57  52  82 SW7       30.00R
WILLMAR        FAIR      54  52  94 CALM      30.00S
$$
MNZ033>034-036-042>043-049>051-058-059-301200-
   Central Minnesota

CITY           SKY/WX    TMP DP  RH WIND       PRES   REMARKS
ST CLOUD       CLEAR     50  49  96 CALM      29.99S FOG
SAUK CENTRE    FAIR      49  47  94 CALM      29.99S
PAYNESVILLE    CLOUDY    52  52 100 CALM      29.99S
AITKIN         FOG       46  43  87 CALM      29.97S VSB 1
PINE RIVER     PTCLDY    46  46 100 CALM      30.02R
BRAINERD       CLEAR     51  50  96 CALM      30.00R
STAPLES        CLOUDY    52  50  93 S5        30.00R
LONG PRAIRIE   FAIR      52  50  93 CALM      30.00S
LITTLE FALLS   MOCLDY    50  50 100 CALM      29.99S FOG
LITCHFIELD     CLOUDY    57  55  94 CALM      29.99S
BUFFALO        CLOUDY    53  51  93 CALM      30.00S
MAPLE LAKE     FOG       52  52  98 CALM      30.00S VSB 3/4
HUTCHINSON     CLEAR     53  53  97 CALM      30.01R FOG
$$
MNZ037-044-045-052-053-301200-
   East Central Minnesota

CITY           SKY/WX    TMP DP  RH WIND       PRES   REMARKS
PRINCETON      FOG       52  48  87 CALM      30.00S VSB<1/4
MORA           CLEAR     48  46  93 CALM      30.01R
CAMBRIDGE      CLEAR     54  46  76 CALM      29.98S HAZE
RUSH CITY      PTCLDY    49  48  97 CALM      30.00S
MOOSE LAKE     FOG       45  43  93 CALM      29.98R VSB 3/4
HINCKLEY       FAIR      46  46 100 CALM      30.00R
CLOQUET        CLEAR     54  48  82 W7        29.98R
MCGREGOR       CLEAR     48  46  93 CALM      30.00R
$$
MNZ071>073-080-081-089-090-097-098-301200-
   Southwest Minnesota

CITY           SKY/WX    TMP DP  RH WIND       PRES   REMARKS
MONTEVIDEO     CLOUDY    57  52  82 SW5       30.01R
GRANITE FALLS  CLOUDY    57  55  91 S9        30.02R
CANBY          CLOUDY    66  52  60 SW7       30.01S
REDWOOD FALLS  MOCLDY    58  51  78 SW8       30.01R
OLIVIA         CLOUDY    55  52  88 S3        29.99R
PIPESTONE      LGT RAIN  63  55  77 S10       30.02F
WINDOM         CLOUDY    63  54  72 CALM      30.05R
WORTHINGTON    LGT RAIN  61  53  75 CALM      30.04F
JACKSON        CLOUDY    63  50  63 SW12      30.07R
TRACY          CLOUDY    64  54  70 SW12      30.04R
SLAYTON        CLOUDY    60  54  78 SW9       30.05F
$$
MNZ065>067-074>077-082>085-091>093-301200-
   South Central Minnesota

CITY           SKY/WX    TMP DP  RH WIND       PRES   REMARKS
MANKATO        CLOUDY    55  52  88 S5        30.01R
NEW ULM        CLOUDY    55  54  94 S12       30.01R
ST JAMES       CLOUDY    54  50  87 SW6       30.05R
FAIRMONT       CLOUDY    61  54  77 W7        30.06R
GLENCOE        CLOUDY    57  56  99 CALM      29.99R
OWATONNA       CLOUDY    55  54  94 SE5       30.02R
WASECA         CLOUDY    54  52  94 E3        30.03R
ALBERT LEA     CLOUDY    54  54 100 CALM      30.03R FOG
$$
MNZ078>079-086>088-094>096-301200-
   Southeast Minnesota

CITY           SKY/WX    TMP DP  RH WIND       PRES   REMARKS
ROCHESTER      CLOUDY    57  55  93 CALM      30.04S
RED WING       CLOUDY    54  52  94 CALM      30.00S FOG
STANTON        CLOUDY    54  52  94 CALM      29.99F FOG
DODGE CENTER   CLOUDY    55  54  94 S3        30.02S
WINONA         CLEAR     55  55 100 CALM      30.02S
AUSTIN         CLOUDY    54  52  94 CALM      30.02R
PRESTON        PTCLDY    58  53  82 CALM      30.03S
$$
ABBREVIATIONS USED IN REMARKS
   TC - TEMPERATURES IN CELSIUS
  WCI - WIND CHILL INDEX
   HX - HEAT INDEX
  VSB - VISIBILITY
$$




USA.gov is the U.S. government's official web portal to all federal, state and local government web resources and services.